Location: Crescent
(42.8242°N, 73.7329°W)
Time: 03:07:46
(UTC+00:00)

Explorer 7 - Pass Details

Date: 18 February 2026
Orbit: 430 x 542 km, 50.2° (Epoch: 7 March)

Event Time Altitude Azimuth Distance (km) Brightness Sun altitude
Rises 00:51:06 0° 301° (WNW) 2,543 11.3 -26.6°
Reaches altitude 10° 00:53:17 10° 306° (NW) 1,682 10.1 -27.0°
Enters shadow 00:55:15 28° 320° (NW) 965 8.4 -27.3°
Maximum altitude 00:57:02 53° 24° (NNE) 624 - -27.7°
Drops below altitude 10° 01:00:55 10° 102° (ESE) 1,745 - -28.4°
Sets 01:03:12 0° 108° (ESE) 2,648 - -28.8°
